Location: Unspecified
(0.0000°N, 0.0000°E)
Time: 15:24:44
(UTC+00:00)

SJ-6F - Visible Passes

Search period start: 03 August 2021 00:00
Search period end: 13 August 2021 00:00
Orbit: 571 x 592 km, 97.8° (Epoch: 03 August)

Date Brightness Start Highest point End Pass type
(mag) Time Alt. Az. Time Alt. Az. Time Alt. Az.
03 Aug 5.9 04:06:04 10° NNE 04:08:15 31° NNE 04:08:15 31° NNE visible
04 Aug 5.8 04:11:37 10° N 04:13:50 32° N 04:13:50 32° N visible
05 Aug 5.7 04:17:11 10° N 04:19:26 31° N 04:19:26 31° N visible
06 Aug 5.7 04:22:47 10° N 04:25:01 30° NNW 04:25:01 30° NNW visible
07 Aug 5.7 04:28:26 10° N 04:30:36 28° NNW 04:30:36 28° NNW visible
08 Aug 5.8 04:34:06 10° N 04:36:12 25° NNW 04:36:12 25° NNW visible
09 Aug 5.9 04:39:49 10° NNW 04:41:48 23° NW 04:41:48 23° NW visible
10 Aug 6.0 04:45:35 10° NNW 04:47:24 20° NW 04:47:24 20° NW visible
11 Aug 6.2 04:51:25 10° NNW 04:53:00 17° NW 04:53:00 17° NW visible
12 Aug 6.3 04:57:19 10° NW 04:58:35 15° NW 04:58:35 15° NW visible
